Retour au catalogue

LEGION 6

ActifScienceVLEO
NORAD 62901·PAYLOAD·🇺🇸 United States

Lancé Feb 4, 2025 depuis Cape Canaveral Space Force Station

Loading…

Prochains Passages (prochaines 24 heures)

TLE

VieillissantSource: Space-Track

Époque: Sep 13, 2026, 13:38 UTC

1 62901U 25025B   26256.56825211  .00002988  00000-0  16612-3 0  9999
2 62901  45.0004  96.6510 0011185 260.2678  99.6937 15.16038145 89045

Suivez LEGION 6 en temps réel avec AllMySat

Download on the App Store